This demonstration page uses our WeatherBlox Daily Observations layout. Learn more.

Left ArrowRight Arrow

Hourly Observations for July 24, 2016

Temp ( °F °C ) Dew Point ( °F °C ) Humidity (%) Winds ( mph kmh ) Pressure ( in mb ) Visibility ( mi km ) Precip ( " mm )
12:15 am 00:15 Clear 76 24.2 69 20.5 80 80 N 7 11 29.83 1010 10 16 N/A
12:35 am 00:35 Clear 75 23.8 67 19.6 77 77 N 8 13 29.83 1010 10 16 N/A
12:55 am 00:55 Clear 74 23.5 65 18.6 74 74 NNE 8 13 29.83 1010 10 16 N/A
1:15 am 01:15 Clear 74 23.2 65 18.1 73 73 NNE 7 11 29.85 1011 10 16 N/A
1:35 am 01:35 Clear 74 23.1 64 17.8 72 72 NNE 8 13 29.85 1011 10 16 N/A
1:55 am 01:55 Clear 74 23.1 63 17.3 70 70 NNE 9 15 29.85 1011 10 16 N/A
2:15 am 02:15 Clear 74 23.2 63 17 68 68 NNE 12 19 29.85 1011 10 16 N/A
2:35 am 02:35 Clear 73 23 62 16.9 69 69 NNE 12 19 29.83 1010 10 16 N/A
2:55 am 02:55 Clear 73 23 62 16.7 68 68 NNE 13 20 29.83 1010 10 16 N/A
3:15 am 03:15 Clear 73 22.9 62 16.4 67 67 NNE 12 19 29.88 1012 10 16 N/A
3:35 am 03:35 Clear 73 22.8 61 16.3 67 67 NNE 12 19 29.88 1012 10 16 N/A
3:55 am 03:55 Clear 72 22.3 61 16.3 69 69 NE 9 15 29.88 1012 10 16 N/A
4:15 am 04:15 Clear 71 21.9 61 16.2 70 70 NNE 8 13 29.85 1011 10 16 N/A
4:35 am 04:35 Clear 70 21.1 61 16.2 74 74 NNE 7 11 29.88 1012 10 16 N/A
4:55 am 04:55 Clear 69 20.6 61 16.2 76 76 NE 7 11 29.85 1011 10 16 N/A
5:15 am 05:15 Clear 67 19.6 62 16.5 82 82 WNW 3 6 29.88 1012 10 16 N/A
5:35 am 05:35 Clear 68 19.8 62 16.5 81 81 N N/A 29.88 1012 10 16 N/A
5:55 am 05:55 Clear 68 20.1 62 16.4 79 79 ENE 7 11 29.88 1012 10 16 N/A
6:15 am 06:15 Clear 69 20.5 60 15.8 75 75 NE 8 13 29.88 1012 10 16 N/A
6:35 am 06:35 Sunny 69 20.4 60 15.7 75 75 N N/A 29.91 1013 10 16 N/A
6:55 am 06:55 Sunny with Nearby Thunderstorms 69 20.6 60 15.8 74 74 NE 9 15 29.91 1013 10 16 N/A
7:15 am 07:15 Sunny 70 20.9 61 16 74 74 ENE 8 13 29.91 1013 10 16 N/A
7:35 am 07:35 Sunny 69 20.7 61 16.3 76 76 E 9 15 29.91 1013 10 16 N/A
7:55 am 07:55 Sunny 70 20.9 61 16.3 75 75 E 9 15 29.91 1013 10 16 N/A
8:15 am 08:15 Sunny 70 21 61 16.2 74 74 E 7 11 29.94 1014 10 16 N/A
8:35 am 08:35 Sunny 70 21.3 61 16.3 73 73 N N/A 29.94 1014 10 16 N/A
8:55 am 08:55 Sunny 71 21.5 62 16.7 74 74 N N/A 29.94 1014 10 16 N/A
9:15 am 09:15 Sunny 72 22.1 62 16.6 71 71 ESE 10 17 29.94 1014 10 16 N/A
9:35 am 09:35 Sunny 73 22.5 62 16.4 69 69 ESE 13 20 29.94 1014 10 16 N/A
9:55 am 09:55 Sunny 73 22.8 62 16.6 68 68 E 6 9 29.97 1015 10 16 N/A
10:15 am 10:15 Sunny 75 23.8 62 16.8 65 65 E 3 6 29.97 1015 10 16 N/A
10:35 am 10:35 Sunny 76 24.7 60 15.8 58 58 ENE 3 6 29.97 1015 10 16 N/A
10:55 am 10:55 Partly Cloudy 78 25.5 60 15.3 53 53 NE 7 11 29.97 1015 10 16 N/A
11:15 am 11:15 Mostly Cloudy 78 25.7 60 15.7 54 54 NNE 9 15 29.97 1015 10 16 N/A
11:35 am 11:35 Partly Cloudy 80 26.6 59 15 49 49 ENE 12 19 29.97 1015 10 16 N/A
11:55 am 11:55 Partly Cloudy 80 26.4 59 14.8 49 49 NE 9 15 29.97 1015 10 16 N/A
12:15 pm 12:15 Partly Cloudy 81 27 59 15.2 48 48 NE 9 15 29.97 1015 10 16 N/A
12:35 pm 12:35 Partly Cloudy 81 27.4 57 13.9 44 44 NE 14 22 29.97 1015 10 16 N/A
12:55 pm 12:55 Partly Cloudy 82 28 56 13.1 40 40 NE 13 20 29.94 1014 10 16 N/A
1:15 pm 13:15 Sunny 83 28.3 57 13.8 41 41 NE 12 19 29.94 1014 10 16 N/A
1:35 pm 13:35 Sunny 83 28.2 57 14.1 42 42 ENE 10 17 29.91 1013 10 16 N/A
1:55 pm 13:55 Sunny 83 28.6 57 14 41 41 NNE 13 20 29.91 1013 10 16 N/A
2:15 pm 14:15 Sunny 83 28.6 58 14.4 42 42 NE 14 22 29.91 1013 10 16 N/A
2:35 pm 14:35 Sunny 84 28.9 58 14.3 41 41 ENE 14 22 29.91 1013 10 16 N/A
2:55 pm 14:55 Sunny 84 29.1 56 13.6 39 39 E 17 28 29.88 1012 10 16 N/A
3:15 pm 15:15 Sunny 84 29.1 57 13.8 39 39 E 17 28 29.88 1012 10 16 N/A
3:35 pm 15:35 Sunny 85 29.5 57 14.1 39 39 E 13 20 29.88 1012 10 16 N/A
3:55 pm 15:55 Sunny 84 28.8 56 13.1 38 38 E 16 26 29.88 1012 10 16 N/A
4:15 pm 16:15 Sunny 85 29.3 58 14.4 40 40 ESE 17 28 29.88 1012 10 16 N/A
4:35 pm 16:35 Sunny 85 29.6 58 14.5 40 40 E 15 24 29.88 1012 10 16 N/A
4:55 pm 16:55 Sunny 85 29.5 56 13.5 37 37 E 14 22 29.88 1012 10 16 N/A
5:15 pm 17:15 Sunny 85 29.6 57 13.9 38 38 E 12 19 29.88 1012 10 16 N/A
5:35 pm 17:35 Sunny 85 29.5 57 14 39 39 E 14 22 29.88 1012 10 16 N/A
5:55 pm 17:55 Sunny 85 29.3 57 13.9 39 39 E 12 19 29.88 1012 10 16 N/A
6:15 pm 18:15 Sunny 84 29.1 58 14.5 41 41 E 10 17 29.88 1012 10 16 N/A
6:35 pm 18:35 Sunny 84 28.9 62 16.7 48 48 E 10 17 29.88 1012 10 16 N/A
6:55 pm 18:55 Sunny 83 28.5 59 15 44 44 E 9 15 29.88 1012 10 16 N/A
7:15 pm 19:15 Sunny 83 28.1 61 15.9 47 47 ENE 9 15 29.91 1013 10 16 N/A
7:35 pm 19:35 Sunny 82 27.5 63 17 53 53 ENE 10 17 29.94 1014 10 16 N/A
7:55 pm 19:55 Sunny 79 26.2 63 17.3 58 58 ENE 7 11 29.94 1014 10 16 N/A
8:15 pm 20:15 Sunny 76 24.7 64 17.8 66 66 ENE 7 11 29.94 1014 10 16 N/A
8:35 pm 20:35 Sunny 76 24.2 64 17.5 66 66 NE 6 9 30.00 1016 10 16 N/A
8:55 pm 20:55 Sunny 74 23.2 64 18 73 73 NE 5 7 30.00 1016 10 16 N/A
9:15 pm 21:15 Clear 73 22.8 65 18.1 75 75 ENE 5 7 30.00 1016 10 16 N/A
9:35 pm 21:35 Clear 73 22.5 65 18.1 76 76 E 7 11 30.00 1016 10 16 N/A
9:55 pm 21:55 Clear 73 22.7 64 17.6 73 73 ENE 6 9 30.00 1016 10 16 N/A
10:15 pm 22:15 Clear 72 22 64 17.5 76 76 E 7 11 30.00 1016 10 16 N/A
10:35 pm 22:35 Clear 71 21.8 64 17.5 77 77 ENE 5 7 30.03 1017 10 16 N/A
10:55 pm 22:55 Clear 70 21 64 17.7 82 82 ENE 3 6 30.06 1018 10 16 N/A
11:15 pm 23:15 Clear 69 20.7 64 17.8 84 84 E 6 9 30.03 1017 10 16 N/A
11:35 pm 23:35 Clear with Nearby Thunderstorms 70 21 64 17.5 81 81 ENE 6 9 30.00 1016 10 16 N/A
11:55 pm 23:55 Clear 70 21 64 17.6 81 81 E 5 7 30.00 1016 10 16 N/A

Powered by AerisWeather